Location: *
(40.4000°N, 15.1200°E)
Time: 07:17:49
(UTC+00:00)

Cosmos 962 Rocket - Pass Details

Date: 09 April 2020
Orbit: 950 x 1000 km, 82.9° (Epoch: 25 May)

Event Time Altitude Azimuth Distance (km) Brightness Sun altitude
Rises 19:21:18 0° 351° (N) 3,647 8.1 -20.1°
Reaches altitude 10° 19:23:48 10° 351° (N) 2,692 7.3 -20.5°
Maximum altitude 19:29:57 81° 265° (W) 968 4.5 -21.5°
Enters shadow 19:34:10 21° 180° (S) 1,978 5.8 -22.2°
